Regional Weather Roundup
Issued by NWS

Home | Current Version | Previous Version | Graphics & Text | Print | Product List | Glossary On
Versions: 1 2 3 4 5 6 7 8 9 10 11 12 13 14 15 16 17 18 19 20 21 22 23 24 25 26 27 28 29 30 31 32 33 34 35 36 37 38 39 40 41 42 43 44 45 46 47 48 49 50
000
ASUS45 KTFX 070510
RWRMT
MONTANA REGIONAL WEATHER ROUNDUP
NATIONAL WEATHER SERVICE GREAT FALLS MT
1000 PM MST TUE DEC 06 2016

NOTE: "FAIR" INDICATES FEW OR NO CLOUDS BELOW 12000 FEET WITH NO
SIGNIFICANT WEATHER AND/OR OBSTRUCTIONS TO VISIBILITY.

MTZ001>007-043-070600-
WEST OF THE DIVIDE

CITY           SKY/WX    TMP DP  RH WIND       PRES   REMARKS
KALISPELL      CLEAR      8  -3  61 N15       30.21R WCI  -9
MISSOULA       CLOUDY    13   1  59 SE20      30.18R WCI  -5
BUTTE          CLEAR      0  -6  76 NW8       29.99R WCI -14
MULLAN PASS    FLURRIES   6   3  87 E3        29.92R
ANACONDA         N/A     -2  -6  84 CALM      30.07R
DEER LODGE       N/A      3  -8  60 NW8       30.11R WCI -10
EUREKA           N/A      0  -6  78 CALM      30.26R
HAMILTON         N/A     12   3  67 N3        30.12R
LIBBY            N/A     18   7  62 E6        30.19R WCI   9
PLAINS           N/A     21   4  48 E3        30.18R
RONAN            N/A     17   8  67 CALM      30.16R
$$

MTZ008-052>055-070600-
SOUTHWEST MONTANA

CITY           SKY/WX    TMP DP  RH WIND       PRES   REMARKS
BOZEMAN        CLOUDY     5   0  79 NW7       30.09R WCI  -7
DILLON         LGT SNOW   4  -1  80 NE13      29.98R WCI -13
W YELLOWSTONE  CLOUDY     0  -2  92 NW3       29.84R
ENNIS          CLOUDY     1  -4  78 N3        30.04R
THREE FORKS      N/A      6 -49   6 N5        30.10R
TWIN BRIDGES     N/A      4  -6  63 N16       29.99R WCI -15
$$

MTZ009-010-012-014-046-048-049-054-070600-
EAST SLOPES AND CENTRAL MONTANA

CITY           SKY/WX    TMP DP  RH WIND       PRES   REMARKS
CUT BANK       CLOUDY    -4 -10  75 NW14      30.26R WCI -24
GREAT FALLS    CLOUDY    -2  -9  72 NW7       30.28R WCI -15
MALMSTROM AFB  FLURRIES  -1  -6  79 NW7       30.31R WCI -14
HELENA         CLOUDY     3  -7  63 W10       30.22R WCI -12
AUGUSTA        FLURRIES  -5 -10  77 N1        30.19R
BOWMANS CRNR   CLOUDY    -6 -10  80 N2        30.19R
CHOTEAU          N/A     -2  -9  71 MISG      30.27R
CONRAD           N/A     -2  -9  72 W3        30.26R
FAIRFIELD      FLURRIES  -4 -11  71 NW10      30.25R WCI -21
POWER          FLURRIES  -4  -9  79 NW10      30.25R WCI -21
RAYNESFORD     FLURRIES  -3  -7  80 W8        30.23R WCI -17
ULM            FLURRIES  -2  -6  84 MISG      30.29R
$$

MTZ011-013-016-021-045-047-050-051-070600-
NORTH CENTRAL MONTANA

CITY           SKY/WX    TMP DP  RH WIND       PRES   REMARKS
HAVRE          CLOUDY     1  -6  72 W10       30.36R WCI -15
LEWISTOWN      CLOUDY    -3  -8  79 W8        30.19R WCI -18
N BAR RANCH      N/A     -4 -13  65 NW10      30.12R WCI -21
CHINOOK          N/A      0  -8  71 W13G18    30.36R WCI -18
DENTON           N/A     -5 -10  79 N12G28    30.22R WCI -23
GEYSER         MOCLDY    -3  -8  79 W18G26    30.18S WCI -25
GRASS RANGE      N/A     -1  -7  75 W24G32    30.15R WCI -26
ROY              N/A     -2  -7  79 MISG      30.20R
STANFORD       MOCLDY    -7 -12  79 SW1       30.15R
$$

MTZ017>020-022>027-061-062-070600-
NORTHEAST MONTANA

CITY           SKY/WX    TMP DP  RH WIND       PRES   REMARKS
GLASGOW        CLOUDY     2  -6  69 W26       30.25R WCI -22
JORDAN           N/A     -1  -8  72 NW14      30.26R WCI -20
SIDNEY         CLOUDY     2  -6  69 NW28G36   30.17S WCI -22
WOLF POINT     CLOUDY     5  -4  66 W13       30.25R WCI -12
PLENTYWOOD       N/A      1  -4  78 NW18      30.14R WCI -19
POPLAR           N/A      3  -6  66 W10       30.24R WCI -12
SCOBEY           N/A      1 -10  60 NW14      30.16R WCI -17
$$

MTZ028>42-056>058-070600-
SOUTHCENTRAL AND SOUTHEAST MONTANA

CITY           SKY/WX    TMP DP  RH WIND       PRES   REMARKS
BAKER          CLOUDY     1  -5  75 NW20G31   30.13R WCI -20
BILLINGS       CLOUDY     4  -4  69 E10       30.17R WCI -11
LIVINGSTON     CLOUDY     0  -4  83 NE5       30.08R
MILES CITY     CLEAR      1  -7  68 NW12      30.25R WCI -16
BIG TIMBER     CLOUDY     3  -4  72 NE8       30.13R WCI -10
EKALAKA          N/A     -4 -11  72 W15       30.05R WCI -25
FORSYTH          N/A      1  -6  71 W3        30.26R
HARLOWTON      CLOUDY    -1  -8  73 N23G29    30.10R WCI -25
LAUREL           N/A      6  -6  57 NE5       30.13R
$$

REGIONAL REPORTS...DAKOTAS

CITY           SKY/WX    TMP DP  RH WIND       PRES   REMARKS
WILLISTON      CLOUDY     3  -4  72 NW10G21   30.17R WCI -12
MINOT          SNOW       7   3  84 W32G43    29.99R VSB 1/4 WCI -17
DICKINSON      CLOUDY     0  -6  76 NW24G33   30.07R HAZE    WCI -24
BEACH          CLOUDY    -2  -8  78 NW14      30.17R WCI -21
CROSBY         CLOUDY     5   0  78 NW28G38   30.12R WCI -18
TIOGA          LGT SNOW   3   1  92 NW25G32   30.08R VSB 1   WCI -20
WATFORD CITY   CLOUDY     1  -4  78 NW17      30.15R WCI -19
BISMARCK       MIX PCPN   6   4  91 W20G28    30.07R WCI -14
GRAND FORKS    LGT SNOW  18  13  80 W28G40    29.71R BLWGSNOWWCI  -1
FARGO          CLOUDY    15   9  76 W31G37    29.79R WCI  -6
BUFFALO SD       N/A      1  -5  75 NW20      30.03R WCI -20
RAPID CITY     CLOUDY     5  -3  69 NW17      30.10R WCI -14
$$

REGIONAL REPORTS...WYOMING/IDAHO/WASHINGTON

CITY           SKY/WX    TMP DP  RH WIND       PRES   REMARKS
GILLETTE       CLOUDY    -7 -10  87 NW3       30.07R
SHERIDAN       CLOUDY     8   2  76 W7        30.12R WCI  -3
BUFFALO WY     CLOUDY     6  -1  73 CALM      30.04R
CODY           LGT SNOW   5   0  79 NE12      30.01R WCI -11
YELLOWSTONE LA   N/A      3   0  87 CALM      29.77R
IDAHO FALLS    CLOUDY    14   6  70 N8        29.94R WCI   3
SALMON         CLOUDY    10   7  85 CALM      30.04R
BOISE          CLEAR     15  13  91 CALM      30.11R
SPOKANE        CLEAR     19  11  70 CALM      30.17R
$$

REGIONAL REPORTS...ALBERTA

CITY           SKY/WX    TMP DP  RH WIND       PRES   REMARKS
$$

REGIONAL REPORTS...SASKATCHEWAN

CITY           SKY/WX    TMP DP  RH WIND       PRES   REMARKS
$$



USA.gov is the U.S. government's official web portal to all federal, state and local government web resources and services.